sat.trackr.live / text

‹ back to catalog

STARLINK-31907

NORAD 59797 · 2024-093R

PAYLOAD ACTIVE UNKNOWN

§ Identity

Operator
Country
US
Launch date
2024-05-18
Launch site
AFETR
Launch vehicle
Mass (kg)
RCS (m²)

Purposes: comms

External: N2YO · Heavens-Above · Gunter

§ Orbital elements

Epoch: 2026-09-21T02:54:20.279520Z

Period
94.27 min
Inclination
43.0027°
Eccentricity
0.0001274
Mean motion
15.27581047 rev/d
Perigee alt
482.2 km
Apogee alt
483.9 km
Semi-major
6,861.2 km
B*
3.3326e-5
RAAN
185.2425°
Arg perigee
269.3734°
Mean anomaly
90.6972°
Rev number
13,258

§ Raw data

STARLINK-319071 59797U 24093R   26264.12106805  .00000655  00000+0  33326-4 0  99942 59797  43.0027 185.2425 0001274 269.3734  90.6972 15.27581047132582

JSON: /api/v1/satellites/59797 · /tle

For live sub-satellite position, see the globe view (requires WebGL).

§ Visibility from observer

Set your observer location to see the next 7 days of passes ≥ 10°. The values pass through the URL so the page stays shareable.

No JS? Fill the form by hand. The geolocation button needs JavaScript.